Location: Los Gatos B&B
(42.6926°N, 77.0646°W)
Time: 21:34:41
(UTC-04:00)

Cosmos 2263 Rocket - Visible Passes

Search period start: 28 September 2016 00:00
Search period end: 08 October 2016 00:00
Orbit: 825 x 847 km, 71.0° (Epoch: 27 September)

Date Brightness Start Highest point End Pass type
(mag) Time Alt. Az. Time Alt. Az. Time Alt. Az.
28 Sep 4.1 06:17:56 10° SSE 06:22:51 33° ESE 06:27:48 10° NE visible
29 Sep 4.2 06:01:24 10° SSE 06:06:11 31° ESE 06:11:00 10° NE visible
30 Sep 4.3 05:44:52 10° SSE 05:49:32 28° ESE 05:54:13 10° NE visible
01 Oct 4.3 05:28:21 10° SSE 05:32:53 26° ESE 05:37:24 10° NE visible
02 Oct 4.4 05:11:53 10° SSE 05:16:13 24° ESE 05:20:34 10° NE visible
03 Oct 4.5 04:55:25 10° SSE 04:59:34 22° E 05:03:43 10° NE visible
03 Oct 2.3 06:37:37 10° SW 06:43:03 53° WNW 06:48:31 10° NNE visible
04 Oct 4.5 04:38:59 10° SE 04:42:55 20° E 04:46:51 10° NE visible
04 Oct 2.2 06:20:52 10° SW 06:26:20 58° WNW 06:31:50 10° NNE visible
05 Oct 4.6 04:22:34 10° SE 04:26:16 18° E 04:29:58 10° ENE visible
05 Oct 2.2 06:04:07 10° SW 06:09:37 63° WNW 06:15:09 10° NNE visible
06 Oct 4.6 04:06:12 10° SE 04:09:37 17° E 04:13:03 10° ENE visible
06 Oct 2.1 05:47:39 11° SSW 05:52:54 68° WNW 05:58:28 10° NNE visible
07 Oct 4.6 03:50:47 12° SE 03:52:59 15° E 03:56:06 10° ENE visible
07 Oct 2.1 05:32:33 22° SSW 05:36:12 74° WNW 05:41:47 10° NNE visible
